Location: ?????? ??????
(44.3742°N, 135.2221°E)
Time: 19:34:47
(UTC+00:00)

DELTA 2 DEB (DPAF) - Visible Passes

Search period start: 18 May 2026 00:00
Search period end: 28 May 2026 00:00
Orbit: 476 x 485 km, 98.3° (Epoch: 18 May)

Date Brightness Start Highest point End Pass type
(mag) Time Alt. Az. Time Alt. Az. Time Alt. Az.
18 May 4.4 16:01:59 10° N 16:04:46 48° NNW 16:04:46 48° NNW visible
19 May 4.7 15:36:25 10° NNE 15:38:59 41° NE 15:38:59 41° NE visible
19 May 6.1 17:11:55 10° NW 17:12:43 11° WNW 17:13:16 10° WNW visible
20 May 5.5 15:11:10 10° NE 15:13:09 23° ENE 15:13:09 23° ENE visible
20 May 5.4 16:44:43 10° NNW 16:47:22 20° WNW 16:47:26 20° WNW visible
21 May 6.2 14:46:33 10° ENE 14:47:17 12° ENE 14:47:17 12° ENE visible
21 May 4.5 16:18:32 10° N 16:21:33 38° NW 16:21:33 38° NW visible
22 May 4.0 15:52:42 10° NNE 15:55:38 58° N 15:55:38 58° N visible
23 May 4.8 15:27:06 10° NNE 15:29:40 35° ENE 15:29:40 35° ENE visible
23 May 5.8 17:01:29 10° NNW 17:03:25 14° WNW 17:03:56 14° WNW visible
24 May 5.8 15:01:54 10° NE 15:03:40 18° ENE 15:03:40 18° ENE visible
24 May 5.0 16:34:49 10° N 16:37:52 27° WNW 16:37:56 26° WNW visible
25 May 4.0 16:08:40 10° N 16:11:53 53° NW 16:11:53 53° NW visible
26 May 4.1 15:42:47 10° NNE 15:45:47 55° NE 15:45:47 55° NE visible
27 May 5.2 15:17:13 10° NE 15:19:39 27° ENE 15:19:39 27° ENE visible
27 May 5.4 16:50:52 10° NNW 16:53:26 19° WNW 16:53:55 18° WNW visible
